This demonstration page uses our WeatherBlox Daily Observations layout. Learn more.

Left ArrowRight Arrow

Hourly Observations for February 19, 2015

Temp ( °F °C ) Dew Point ( °F °C ) Humidity (%) Winds ( mph kmh ) Pressure ( in mb ) Visibility ( mi km ) Precip ( " mm )
12:15 am 00:15 Cloudy 16 -9 3 -16 57 57 ESE 3 6 30.45 1031 10 16 0.00 0.00
12:35 am 00:35 Cloudy 18 -8 1 -17 49 49 ENE 5 7 30.45 1031 10 16 0.00 0.00
12:55 am 00:55 Cloudy 16 -9 1 -17 53 53 ENE 5 7 30.45 1031 10 16 0.00 0.00
1:15 am 01:15 Cloudy 16 -9 1 -17 53 53 S 5 7 30.45 1031 10 16 0.00 0.00
1:35 am 01:35 Cloudy 16 -9 1 -17 53 53 SSE 3 6 30.50 1033 10 16 0.00 0.00
1:55 am 01:55 Cloudy 16 -9 1 -17 53 53 ESE 5 7 30.45 1031 10 16 0.00 0.00
2:15 am 02:15 Cloudy 18 -8 1 -17 49 49 E 9 15 30.45 1031 10 16 0.00 0.00
2:35 am 02:35 Cloudy 18 -8 3 -16 53 53 S 5 7 30.45 1031 10 16 0.00 0.00
2:55 am 02:55 Cloudy 18 -8 3 -16 53 53 S 7 11 30.45 1031 10 16 0.00 0.00
3:15 am 03:15 Cloudy 18 -8 1 -17 49 49 SSE 8 13 30.45 1031 10 16 0.00 0.00
3:35 am 03:35 Cloudy 18 -8 1 -17 49 49 S 7 11 30.45 1031 10 16 0.00 0.00
3:55 am 03:55 Cloudy 18 -8 3 -16 53 53 SSE 7 11 30.45 1031 10 16 0.00 0.00
4:15 am 04:15 Cloudy 18 -8 3 -16 53 53 S 8 13 30.45 1031 10 16 0.00 0.00
4:35 am 04:35 Cloudy 18 -8 3 -16 53 53 SSE 7 11 30.42 1030 10 16 0.00 0.00
4:55 am 04:55 Cloudy 18 -8 1 -17 49 49 SSE 9 15 30.42 1030 10 16 0.00 0.00
5:15 am 05:15 Cloudy 18 -8 3 -16 53 53 SE 9 15 30.42 1030 10 16 0.00 0.00
5:35 am 05:35 Cloudy 18 -8 1 -17 49 49 SE 8 13 30.42 1030 10 16 0.00 0.00
5:55 am 05:55 Cloudy 18 -8 1 -17 49 49 SSE 12 19 30.39 1029 10 16 0.00 0.00
6:15 am 06:15 Cloudy 18 -8 1 -17 49 49 SE 9 15 30.39 1029 10 16 0.00 0.00
6:35 am 06:35 Cloudy 18 -8 3 -16 53 53 SSE 12 19 30.39 1029 10 16 0.00 0.00
6:55 am 06:55 Cloudy 18 -8 3 -16 53 53 SE 13 20 30.36 1028 10 16 0.00 0.00
7:15 am 07:15 Cloudy 18 -8 3 -16 53 53 SSE 13 20 30.36 1028 10 16 0.00 0.00
7:35 am 07:35 Cloudy 18 -8 3 -16 53 53 SSE 9 15 30.36 1028 10 16 0.00 0.00
7:55 am 07:55 Cloudy 18 -8 3 -16 53 53 SSE 10 17 30.36 1028 10 16 0.00 0.00
8:15 am 08:15 Mostly Cloudy 18 -8 3 -16 53 53 SE 10 17 30.36 1028 10 16 0.00 0.00
8:35 am 08:35 Mostly Sunny 18 -8 3 -16 53 53 SE 12 19 30.36 1028 10 16 0.00 0.00
8:55 am 08:55 Mostly Sunny 18 -8 5 -15 58 58 SE 13 20 30.36 1028 10 16 0.00 0.00
9:15 am 09:15 Mostly Cloudy 19 -7 5 -15 53 53 SE 13 20 30.36 1028 10 16 0.00 0.00
9:35 am 09:35 Cloudy 19 -7 3 -16 49 49 SSE 17 28 30.36 1028 10 16 0.00 0.00
9:55 am 09:55 Cloudy 19 -7 3 -16 49 49 SE 14 22 30.36 1028 10 16 0.00 0.00
10:15 am 10:15 Cloudy 21 -6 3 -16 45 45 SE 16 26 30.33 1027 10 16 0.00 0.00
10:35 am 10:35 Cloudy 23 -5 7 -14 50 50 SSE 16 26 30.33 1027 10 16 0.00 0.00
10:55 am 10:55 Cloudy 25 -4 5 -15 42 42 SSE 20 31 30.30 1026 10 16 0.00 0.00
11:15 am 11:15 Cloudy 25 -4 7 -14 46 46 SSE 17 28 30.30 1026 10 16 0.00 0.00
11:35 am 11:35 Mostly Sunny 27 -3 7 -14 43 43 SSE 16 26 30.27 1025 10 16 0.00 0.00
11:55 am 11:55 Mostly Cloudy 27 -3 7 -14 43 43 SSE 14 22 30.27 1025 10 16 0.00 0.00
12:15 pm 12:15 Cloudy 28 -2 7 -14 40 40 SSE 20 31 30.24 1024 10 16 0.00 0.00
12:35 pm 12:35 Cloudy 28 -2 9 -13 43 43 SSE 18 30 30.24 1024 10 16 0.00 0.00
12:55 pm 12:55 Cloudy 28 -2 7 -14 40 40 SSE 20 31 30.24 1024 10 16 0.00 0.00
1:15 pm 13:15 Cloudy 27 -3 7 -14 43 43 SSE 20 31 30.21 1023 10 16 0.00 0.00
1:35 pm 13:35 Cloudy 28 -2 9 -13 43 43 SSE 16 26 30.21 1023 10 16 0.00 0.00
1:55 pm 13:55 Cloudy 30 -1 9 -13 40 40 SSE 18 30 30.18 1022 10 16 0.00 0.00
2:15 pm 14:15 Mostly Cloudy 30 -1 9 -13 40 40 SSE 17 28 30.18 1022 10 16 0.00 0.00
2:35 pm 14:35 Mostly Sunny 30 -1 9 -13 40 40 S 21 33 30.15 1021 10 16 0.00 0.00
2:55 pm 14:55 Sunny 30 -1 9 -13 40 40 S 20 31 30.15 1021 10 16 0.00 0.00
3:15 pm 15:15 Sunny 32 0 10 -12 40 40 S 15 24 30.15 1021 10 16 0.00 0.00
3:35 pm 15:35 Sunny 30 -1 9 -13 40 40 SSE 20 31 30.12 1020 10 16 0.00 0.00
3:55 pm 15:55 Sunny 30 -1 9 -13 40 40 S 18 30 30.12 1020 10 16 0.00 0.00
4:15 pm 16:15 Sunny 32 0 9 -13 37 37 SSE 21 33 30.12 1020 10 16 0.00 0.00
4:35 pm 16:35 Sunny 30 -1 9 -13 40 40 SSE 17 28 30.12 1020 10 16 0.00 0.00

Powered by AerisWeather